Temperature
11 11 11 11 11 11 11 11 10 10 10 11 11 11 11 11 10 10 10 11 11 11 11 11 11 11 11 11 11 11 11 11 11 11 11 11 11 10 10 10 10 10 10
11 11 11 11 11 11 10 10 10 10 10 10 10 10 10 10 10 10 10 10 10 10 10 11 11 11 11 11 11 10 10 10 10 10 10 10 10 10 10 10 9 9 9
11 10 10 10 10 10 10 10 10 10 10 10 10 10 10 10 10 10 10 10 10 10 10 10 10 10 10 10 10 10 10 10 10 9 9 9 8 8 9 9 9 9 9
10 10 10 10 10 10 10 10 10 10 10 10 10 10 10 10 10 10 9 9 9 10 10 10 10 10 10 10 10 9 9 9 9 9 9 8 8 7 7 7 8 8 8
10 10 10 10 10 10 10 10 9 9 9 9 9 9 9 10 10 9 9 9 9 9 9 9 9 9 9 9 9 9 9 9 9 8 8 8 8 7 7 6 7 7 7
10 10 10 10 10 10 10 9 9 9 9 9 9 9 9 9 9 9 9 9 9 9 9 9 9 8 8 8 8 8 8 8 8 8 8 7 7 7 6 6 6 6 7
10 10 10 10 10 9 9 9 9 9 9 9 9 9 9 9 9 9 9 9 8 8 8 8 8 8 8 8 8 8 7 7 7 7 7 7 7 6 6 6 5 5 6
9 10 10 10 9 9 9 9 9 9 9 9 8 8 8 9 9 8 8 8 8 8 8 8 8 7 7 7 7 7 7 7 7 7 6 6 6 6 6 5 5 4 4
9 9 9 9 9 9 9 9 8 8 8 8 8 8 8 8 8 8 8 8 8 7 7 7 7 7 7 7 7 7 6 6 6 6 6 6 6 5 5 5 5 4 3
9 9 9 9 9 9 8 8 8 8 8 8 8 8 8 8 7 7 7 7 7 7 7 7 7 7 6 6 6 6 6 6 6 6 5 5 5 5 5 5 4 4 3
9 9 9 9 9 8 8 8 8 8 8 8 8 7 7 7 7 7 7 7 7 6 6 6 6 6 6 6 6 5 5 5 5 5 5 5 5 4 4 4 4 4 3
9 9 8 8 8 8 8 8 8 7 7 7 7 7 7 7 7 7 6 6 6 6 6 6 6 6 5 5 5 5 5 5 5 5 4 4 4 4 4 4 3 3 3
8 8 8 8 8 8 8 7 7 7 7 7 6 6 6 6 6 6 6 6 6 5 5 5 5 5 5 5 5 4 4 4 4 4 4 4 3 3 3 3 3 3 2
8 8 8 8 7 7 7 7 7 7 6 6 6 6 6 6 6 5 5 5 5 5 5 5 4 4 4 4 4 4 4 4 4 4 3 3 3 3 3 2 2 2 2
7 7 7 7 7 7 7 7 6 6 6 6 5 5 5 5 5 5 5 5 4 4 4 4 4 4 4 4 4 4 3 3 3 3 3 3 2 2 2 2 2 2 1
7 7 7 7 6 6 6 6 6 6 5 5 5 5 5 5 4 4 4 4 4 4 4 3 3 3 3 3 3 3 3 3 2 2 2 2 2 2 2 2 1 1 1
6 6 6 6 6 6 6 5 5 5 5 5 4 4 4 4 4 4 4 4 3 3 3 3 3 3 3 2 2 2 2 2 2 2 2 2 2 2 1 1 1 1 0
6 6 6 6 6 5 5 5 5 4 4 4 4 4 4 3 3 3 3 3 3 3 2 2 2 2 2 2 2 2 1 1 1 1 1 1 1 1 1 1 1 0 0
6 6 5 5 5 5 5 4 4 4 4 4 3 3 3 3 3 3 3 2 2 2 2 2 2 2 2 1 1 1 1 1 1 1 1 1 1 1 0 0 0 0 0
5 5 5 5 4 4 4 4 4 3 3 3 3 3 2 2 2 2 2 2 2 1 1 1 1 1 1 1 1 0 0 0 0 0 0 0 0 -0 -0 -1 -1 -0 -0
4 4 4 4 4 3 3 3 3 3 3 3 2 2 2 2 2 1 1 1 1 1 1 1 1 1 1 0 0 -0 -0 -0 -0 -0 -0 -0 -0 -1 -1 -1 -1 -1 -1
3 3 3 3 3 3 3 2 2 2 2 2 2 2 1 1 1 1 1 1 0 0 0 0 0 0 0 -0 -0 -0 -1 -1 -1 -1 -1 -1 -1 -1 -1 -1 -2 -2 -2
2 2 2 2 2 2 2 2 2 2 2 1 1 1 1 1 0 0 0 0 -0 -0 -0 -0 -0 -0 -0 -0 -1 -1 -1 -1 -1 -1 -1 -1 -1 -2 -2 -2 -2 -2 -2
2 2 2 2 2 2 1 1 1 1 1 1 1 1 0 0 0 -0 -0 -0 -0 -1 -1 -1 -1 -1 -1 -1 -1 -1 -1 -1 -2 -2 -2 -2 -2 -2 -2 -2 -2 -2 -3
1 1 1 1 1 1 1 1 1 1 0 0 0 -0 -0 -0 -0 -1 -1 -1 -1 -1 -1 -1 -2 -2 -1 -1 -1 -2 -2 -2 -2 -2 -2 -2 -2 -2 -2 -2 -3 -3 -3
1 0 0 0 0 1 1 1 0 0 -0 -0 -0 -1 -1 -1 -1 -1 -1 -1 -1 -2 -2 -2 -2 -2 -2 -2 -2 -2 -2 -2 -3 -3 -3 -3 -3 -3 -3 -3 -3 -3 -3
Wind_Speed
4 4 5 6 6 6 6 6 6 5 5 4 3 3 2 1 2 2 3 4 4 4 4 3 2 2 2 2 2 2 2 2 1 2 2 3 3 3 2 2 3 4 4
3 4 5 5 6 7 6 6 6 6 5 4 3 2 3 2 1 1 2 3 4 4 3 3 2 2 2 2 2 2 1 1 2 2 1 2 3 3 3 3 2 2 4
7 6 6 5 6 6 7 7 6 6 5 5 4 4 3 2 1 1 1 1 3 3 3 3 2 2 2 1 2 2 2 1 2 2 2 1 1 2 2 2 3 3 3
6 6 6 6 6 6 6 6 6 6 5 6 6 6 4 3 3 2 1 1 2 3 3 3 2 2 1 1 1 1 1 2 0 1 1 1 2 1 2 2 3 4 3
7 7 6 6 6 5 6 6 6 5 5 5 6 5 4 3 2 1 2 2 1 2 2 2 2 1 1 1 1 1 1 1 1 1 0 1 1 1 1 3 3 3 2
7 6 5 5 4 4 5 6 6 5 5 6 6 7 6 4 3 2 3 2 1 1 1 1 1 1 0 0 0 1 1 1 1 1 1 1 1 1 1 2 3 4 3
8 7 7 6 5 5 5 5 7 6 5 6 6 6 6 6 5 4 4 3 2 1 2 1 1 1 1 1 1 1 1 1 1 1 1 1 2 2 2 2 3 4 3
7 7 8 8 7 6 6 6 7 6 6 6 6 5 5 4 4 5 4 4 3 3 2 2 2 2 2 1 1 1 1 1 1 2 2 2 2 2 2 2 2 3 3
7 7 7 7 6 6 6 6 6 5 5 6 6 5 5 5 5 4 4 3 3 2 3 2 2 2 2 2 1 1 2 1 2 2 2 2 2 2 2 2 2 3 4
6 6 6 6 6 6 5 5 5 5 4 5 5 5 5 5 5 4 4 4 3 3 3 3 2 2 2 2 2 2 2 2 2 2 2 3 3 2 2 2 2 3 4
7 6 5 5 5 4 4 4 4 4 3 3 4 4 4 4 4 4 4 4 3 3 3 3 3 3 3 2 2 3 3 3 3 3 3 4 3 3 2 2 3 3 3
5 4 4 4 4 4 4 5 4 4 4 4 4 4 3 3 4 4 4 4 4 4 4 3 3 3 3 3 3 4 4 4 4 4 4 5 3 3 3 3 3 4 4
3 3 3 4 4 5 4 5 5 4 3 3 4 4 4 4 4 4 4 4 4 4 4 4 4 4 4 4 4 4 5 5 5 5 5 5 4 5 4 4 4 4 4
4 4 4 4 4 4 4 5 4 4 4 4 4 4 4 4 4 4 4 4 4 4 4 4 4 4 4 4 5 5 5 5 5 5 6 6 6 6 6 5 5 4 4
3 4 4 4 4 4 4 4 4 4 4 4 4 5 4 4 4 4 4 4 4 4 4 4 4 4 4 5 5 5 5 5 5 5 6 6 7 9 7 6 5 5 5
4 4 4 4 4 4 5 4 4 4 4 4 4 4 4 4 4 4 4 4 4 4 4 4 5 5 5 6 8 6 5 5 6 6 6 6 7 9 11 11 10 8 7
4 4 4 5 5 5 5 5 5 4 4 4 4 4 4 5 5 5 4 5 5 4 5 5 5 6 7 9 9 9 5 5 6 6 6 6 6 7 6 8 9 10 12
4 4 3 4 4 4 4 4 4 4 4 4 4 4 4 5 5 5 5 5 4 5 5 6 6 6 7 9 9 9 6 5 6 6 6 7 6 6 6 5 6 6 7
4 4 4 3 3 3 4 3 3 4 4 5 5 5 5 6 6 6 6 5 4 5 5 5 6 6 7 9 10 8 4 5 6 6 6 6 7 10 10 6 6 7 6
2 2 2 2 2 3 3 4 4 4 5 6 6 6 5 6 7 7 6 5 5 5 5 6 6 7 7 9 10 9 4 5 6 5 6 9 10 11 10 6 6 7 7
2 2 1 2 3 3 3 4 5 6 7 5 5 5 5 6 6 6 5 5 5 5 5 6 6 6 8 9 11 10 5 5 5 5 5 6 10 11 11 9 7 9 7
2 2 1 3 3 2 3 5 6 7 5 5 5 5 5 5 5 5 5 5 5 5 5 5 6 5 6 8 9 11 10 8 6 6 6 6 10 11 11 9 9 10 7
3 2 2 3 4 3 4 6 7 5 4 5 5 5 5 4 4 5 5 4 4 5 5 5 6 6 5 6 10 11 11 11 7 6 9 10 11 10 8 9 10 7 4
3 3 3 4 5 4 5 6 6 5 5 5 5 5 4 4 4 4 5 5 5 5 5 6 6 6 5 5 4 5 6 7 6 5 8 10 10 8 7 7 6 4 4
4 3 4 5 6 6 5 5 5 4 5 5 5 5 5 5 5 5 5 6 6 7 7 6 6 6 7 8 9 6 5 4 5 4 4 3 3 3 4 4 4 4 4
4 4 5 6 6 6 6 6 5 5 5 5 5 5 4 4 4 4 5 7 8 10 11 10 9 8 10 11 11 10 10 9 8 5 4 4 4 5 5 5 4 4 5
Wind_Direction
203 173 166 161 154 151 150 148 146 147 135 124 123 117 110 89 70 73 87 95 92 86 85 77 58 60 88 88 76 89 63 40 31 46 14 3 3 21 22 35 48 41 32
185 177 169 163 163 163 163 155 156 157 155 149 148 141 135 124 123 86 69 93 94 88 87 81 67 62 76 73 69 75 74 32 41 79 66 359 351 1 10 16 33 33 37
192 186 179 175 168 171 172 168 166 166 165 151 133 116 91 74 72 59 22 83 106 97 88 84 71 58 78 84 79 84 94 91 10 58 117 139 250 312 332 0 14 16 18
189 179 177 175 179 184 175 166 168 169 171 159 155 154 155 166 189 182 185 143 112 105 96 92 79 65 74 83 78 83 114 130 132 359 43 146 169 196 305 325 351 358 353
186 179 178 179 177 173 169 166 165 173 174 169 164 159 163 169 162 161 157 144 105 101 110 110 96 77 74 89 89 91 103 129 166 190 179 55 45 188 209 277 306 326 320
185 178 173 160 158 156 160 162 165 176 175 170 169 172 176 174 172 181 168 161 146 127 121 126 118 130 141 167 179 166 152 173 180 190 169 178 192 221 213 254 283 296 298
177 177 172 172 171 168 169 168 169 179 181 176 182 184 183 180 187 190 181 173 174 193 213 167 166 199 212 195 171 185 204 196 195 212 217 221 229 221 226 239 272 288 294
182 184 183 181 181 178 175 171 176 184 184 184 190 191 187 184 187 186 181 186 194 203 196 186 193 208 212 206 180 210 239 222 219 241 236 244 251 234 221 221 241 285 291
189 191 186 181 181 181 183 179 176 180 188 191 186 188 193 187 189 188 185 191 200 201 188 187 191 203 206 203 195 225 245 238 237 241 244 249 256 249 238 225 212 225 270
187 191 190 186 186 187 185 176 176 183 187 190 192 191 190 188 187 181 192 196 199 191 194 203 205 217 215 202 207 231 241 233 248 241 242 253 254 252 241 231 233 225 238
190 191 191 187 182 177 172 174 182 179 179 187 185 182 186 184 182 189 200 198 198 196 201 205 208 219 227 225 224 236 237 240 255 252 244 251 246 245 244 238 239 240 234
192 188 183 174 174 180 179 180 183 184 189 188 182 186 184 179 187 201 208 200 201 203 206 206 213 225 228 225 227 239 244 241 248 252 249 255 251 243 241 238 240 245 239
177 178 179 183 193 195 193 192 192 195 189 177 179 185 190 192 203 211 211 208 208 212 211 209 218 227 231 232 233 236 244 244 245 244 244 251 245 249 245 238 241 246 254
186 187 195 204 206 201 196 196 201 197 188 178 184 197 207 208 212 214 212 214 212 215 219 223 227 231 236 238 237 235 242 247 248 244 241 243 238 241 243 245 241 240 247
196 193 198 206 205 201 201 199 201 199 189 183 197 214 218 214 210 211 215 217 219 224 224 227 236 238 241 240 237 236 240 241 249 250 246 245 244 245 247 248 238 231 241
216 209 203 206 211 209 208 205 206 203 187 194 213 221 220 220 218 219 218 218 223 228 227 234 237 242 247 253 253 250 243 240 243 251 252 250 251 254 257 258 253 244 243
225 220 215 217 220 217 209 208 208 196 190 204 215 218 220 225 229 225 220 223 227 228 233 239 240 246 250 257 259 257 253 241 243 245 248 257 256 256 247 257 260 259 257
231 231 226 230 231 221 215 209 202 196 202 214 223 223 222 230 231 226 228 231 228 227 234 241 242 248 256 259 262 263 261 250 246 243 241 245 251 248 247 246 253 254 257
227 229 225 226 230 228 215 200 208 206 212 223 229 230 225 229 229 231 237 235 230 236 239 242 241 246 258 257 259 261 255 254 254 251 245 242 245 255 257 250 251 260 262
232 234 237 226 232 238 198 193 216 217 227 231 233 232 227 229 230 232 237 237 233 239 242 248 244 242 250 256 260 260 251 257 260 256 249 249 251 257 256 245 243 256 261
265 248 237 244 246 233 196 213 225 232 235 234 232 231 230 233 234 235 236 234 236 241 245 251 255 248 249 258 260 260 250 246 257 258 255 250 255 258 257 254 245 253 260
293 275 259 271 268 233 207 230 241 243 237 228 230 234 235 240 241 231 237 232 227 239 250 256 264 260 254 257 261 260 258 255 253 256 254 253 256 258 258 257 253 258 259
268 263 253 270 273 247 220 235 250 245 231 229 235 240 243 245 236 226 231 238 230 235 248 249 259 268 265 261 264 264 265 262 258 256 255 259 261 261 259 256 256 254 241
272 268 266 270 271 262 245 239 247 235 226 234 241 239 238 246 243 231 224 227 230 235 244 248 254 263 265 259 254 254 263 263 263 264 264 265 261 256 255 258 253 234 225
273 264 258 262 265 264 261 258 245 226 230 238 242 242 239 238 244 242 233 232 232 230 236 242 243 248 259 257 253 256 253 246 249 260 266 261 255 244 245 244 238 229 230
266 267 265 265 268 265 261 258 245 226 226 241 244 241 240 239 239 245 262 248 244 252 252 251 255 260 260 268 265 265 267 267 263 264 255 253 248 243 239 241 242 235 234
Height
1489 1491 1492 1494 1495 1497 1499 1501 1502 1504 1505 1507 1509 1510 1511 1512 1513 1514 1515 1516 1517 1518 1518 1519 1519 1519 1520 1520 1520 1520 1520 1520 1520 1520 1520 1521 1521 1521 1521 1521 1521 1521 1520
1488 1489 1491 1492 1494 1495 1497 1499 1501 1503 1504 1506 1508 1509 1510 1511 1512 1513 1514 1514 1515 1516 1517 1517 1518 1518 1518 1518 1518 1518 1518 1518 1518 1518 1518 1518 1519 1518 1519 1518 1518 1518 1518
1485 1487 1489 1490 1492 1493 1495 1497 1500 1502 1504 1505 1507 1507 1508 1510 1511 1511 1512 1513 1514 1515 1515 1516 1516 1516 1516 1516 1516 1516 1516 1516 1516 1516 1517 1517 1515 1515 1515 1515 1515 1515 1515
1483 1485 1486 1488 1490 1492 1494 1496 1498 1500 1502 1504 1505 1505 1506 1508 1509 1510 1510 1511 1512 1513 1513 1514 1514 1514 1514 1514 1514 1514 1514 1514 1514 1514 1514 1515 1514 1514 1512 1512 1512 1512 1512
1481 1482 1484 1486 1489 1491 1493 1495 1497 1499 1500 1502 1503 1504 1505 1507 1508 1508 1508 1509 1510 1511 1511 1512 1512 1512 1512 1512 1512 1512 1512 1512 1512 1512 1511 1511 1511 1511 1510 1508 1508 1508 1508
1480 1481 1483 1485 1487 1489 1491 1493 1495 1497 1498 1500 1501 1502 1504 1505 1505 1506 1506 1507 1508 1509 1509 1510 1510 1510 1510 1510 1510 1510 1510 1510 1509 1509 1508 1508 1508 1508 1507 1506 1505 1504 1504
1478 1480 1481 1483 1485 1487 1489 1490 1492 1494 1495 1497 1499 1500 1501 1502 1503 1503 1504 1505 1506 1506 1507 1507 1508 1508 1508 1508 1508 1507 1507 1507 1506 1506 1505 1505 1505 1505 1505 1504 1502 1501 1500
1476 1477 1479 1481 1483 1485 1486 1488 1490 1492 1493 1494 1496 1497 1499 1499 1500 1501 1502 1502 1503 1504 1504 1505 1505 1505 1505 1505 1505 1504 1504 1503 1503 1503 1502 1502 1502 1502 1501 1501 1500 1498 1497
1474 1476 1478 1480 1481 1483 1484 1486 1487 1489 1490 1492 1493 1494 1495 1497 1497 1498 1499 1500 1501 1501 1502 1502 1502 1502 1502 1502 1501 1501 1500 1500 1500 1499 1499 1498 1498 1498 1498 1497 1497 1497 1494
1473 1475 1476 1478 1480 1482 1483 1485 1486 1487 1488 1489 1490 1492 1493 1494 1495 1495 1496 1497 1498 1498 1498 1498 1498 1498 1498 1498 1498 1497 1497 1496 1496 1496 1495 1494 1494 1494 1493 1493 1493 1492 1491
1472 1473 1474 1476 1478 1480 1481 1482 1483 1484 1485 1486 1487 1489 1489 1490 1491 1492 1493 1493 1494 1494 1495 1495 1495 1494 1494 1494 1493 1493 1493 1492 1492 1491 1491 1490 1490 1489 1488 1488 1488 1487 1487
1471 1472 1473 1475 1476 1477 1478 1479 1481 1482 1482 1484 1485 1486 1486 1487 1488 1489 1489 1490 1490 1491 1491 1491 1490 1490 1490 1489 1489 1489 1488 1488 1487 1487 1486 1485 1485 1484 1484 1483 1483 1482 1482
1469 1470 1472 1473 1474 1475 1476 1477 1478 1479 1480 1481 1481 1482 1483 1483 1484 1485 1486 1486 1486 1486 1486 1486 1486 1486 1485 1485 1484 1484 1483 1483 1482 1482 1481 1481 1480 1479 1479 1479 1478 1478 1477
1467 1468 1469 1470 1471 1473 1474 1474 1475 1476 1477 1478 1478 1478 1479 1480 1480 1481 1481 1482 1482 1482 1482 1482 1481 1481 1481 1480 1480 1479 1478 1478 1477 1477 1476 1476 1476 1475 1475 1474 1473 1473 1472
1465 1465 1466 1467 1469 1469 1470 1471 1472 1473 1474 1474 1474 1475 1475 1476 1477 1477 1477 1477 1478 1477 1477 1477 1476 1476 1476 1475 1475 1474 1473 1473 1472 1471 1471 1471 1470 1470 1469 1469 1468 1467 1467
1462 1463 1464 1465 1465 1466 1467 1468 1469 1469 1470 1470 1470 1471 1472 1472 1472 1472 1472 1472 1472 1472 1472 1472 1471 1471 1471 1470 1470 1469 1468 1467 1467 1466 1465 1465 1465 1464 1464 1463 1462 1462 1461
1460 1460 1461 1461 1462 1462 1463 1464 1464 1465 1466 1466 1467 1467 1467 1467 1467 1467 1467 1467 1467 1467 1467 1466 1466 1466 1465 1465 1465 1464 1463 1462 1461 1460 1460 1459 1459 1458 1457 1457 1456 1456 1455
1457 1458 1458 1458 1459 1459 1459 1460 1460 1461 1461 1462 1462 1462 1462 1462 1462 1462 1462 1462 1462 1462 1461 1461 1461 1460 1460 1460 1459 1458 1457 1456 1455 1455 1454 1453 1452 1452 1452 1450 1450 1449 1449
1455 1455 1455 1455 1455 1455 1455 1456 1456 1456 1457 1457 1457 1457 1457 1457 1457 1457 1457 1456 1456 1456 1456 1456 1455 1454 1454 1454 1453 1452 1451 1450 1449 1448 1448 1447 1446 1446 1446 1445 1443 1442 1442
1452 1452 1452 1451 1451 1451 1451 1451 1451 1452 1452 1452 1452 1452 1452 1452 1452 1451 1451 1451 1451 1450 1450 1450 1449 1449 1448 1448 1447 1447 1445 1444 1443 1442 1441 1441 1441 1440 1439 1439 1437 1436 1436
1449 1448 1448 1447 1447 1447 1447 1447 1447 1447 1447 1448 1448 1448 1447 1447 1447 1446 1446 1446 1445 1445 1444 1444 1443 1443 1442 1442 1441 1440 1440 1438 1437 1436 1435 1435 1434 1434 1433 1433 1431 1430 1430
1445 1445 1444 1444 1443 1443 1443 1442 1442 1442 1443 1443 1442 1442 1442 1441 1441 1441 1440 1440 1440 1439 1438 1438 1437 1436 1436 1436 1435 1434 1434 1433 1431 1430 1429 1428 1428 1427 1427 1426 1425 1425 1425
1442 1442 1441 1440 1439 1439 1438 1438 1437 1438 1437 1437 1437 1437 1436 1436 1436 1435 1435 1434 1434 1433 1432 1432 1430 1430 1430 1429 1429 1428 1427 1426 1425 1424 1423 1422 1421 1421 1421 1420 1420 1419 1419
1438 1438 1437 1436 1435 1435 1434 1433 1433 1432 1432 1432 1431 1431 1431 1430 1430 1430 1429 1429 1428 1427 1426 1425 1425 1424 1424 1423 1423 1422 1421 1420 1419 1418 1417 1416 1415 1414 1414 1414 1414 1413 1413
1434 1434 1433 1432 1430 1430 1429 1428 1428 1427 1427 1426 1426 1425 1425 1425 1424 1424 1423 1423 1422 1422 1421 1420 1419 1418 1417 1417 1417 1417 1415 1415 1414 1413 1411 1410 1409 1408 1408 1408 1408 1408 1408
1430 1429 1428 1427 1425 1425 1423 1423 1423 1422 1421 1420 1420 1420 1419 1419 1418 1418 1417 1416 1416 1416 1415 1415 1414 1413 1413 1412 1412 1411 1410 1409 1409 1408 1406 1404 1404 1403 1403 1403 1402 1402 1402